Location: Oberstdorf
(47.4188°N, 10.2969°E)
Time: 11:56:05
(UTC+01:00)

ISS - Visible Passes

Search period start: 23 November 2017 00:00
Search period end: 03 December 2017 00:00
Orbit: 402 x 407 km, 51.6° (Epoch: 23 November)

Date Brightness Start Highest point End Pass type
(mag) Time Alt. Az. Time Alt. Az. Time Alt. Az.
27 Nov -1.1 19:07:11 10° SW 19:07:56 15° SSW 19:07:56 15° SSW visible
28 Nov -2.4 18:15:21 10° SSW 18:17:57 24° SE 18:17:57 24° SE visible
29 Nov -1.6 17:24:00 10° S 17:25:56 15° SE 17:27:52 10° E visible
29 Nov -2.0 18:58:41 10° WSW 19:00:32 31° WSW 19:00:32 31° WSW visible
30 Nov -3.4 18:06:28 10° SW 18:09:39 49° SSE 18:10:23 39° ESE visible
30 Nov -0.2 19:42:58 10° W 19:43:02 10° W 19:43:02 10° W visible
01 Dec -2.5 17:14:30 10° SSW 17:17:23 29° SE 17:20:10 11° E visible
01 Dec -2.6 18:50:27 10° W 18:52:49 41° W 18:52:49 41° W visible
02 Dec -3.9 17:58:00 10° WSW 18:01:17 89° NNW 18:02:33 35° ENE visible
02 Dec -0.4 19:34:53 10° WNW 19:35:12 12° WNW 19:35:12 12° WNW visible
